Location: Spangle
(47.4302°N, 117.3779°W)
Time: 11:19:18
(UTC+00:00)

ISS - Pass Details

Date: 27 April 2026
Orbit: 414 x 424 km, 51.6° (Epoch: 11 May)

Event Time Altitude Azimuth Distance (km) Brightness Sun altitude
Exits shadow 12:04:28 - 282° (WNW) 2,145 -0.6 -6.2°
Reaches altitude 10° 12:06:06 10° 289° (WNW) 1,501 -1.3 -5.9°
Maximum altitude 12:09:17 38° 360° (N) 657 -2.5 -5.4°
Drops below altitude 10° 12:12:29 10° 70° (ENE) 1,508 0.9 -4.9°
Sets 12:14:41 0° 79° (E) 2,374 2.0 -4.6°
